• In Kazakhstan
  • List of Countries
  • For 7 days
  • Water Temperature
  • Satellite Maps
  • Weather Map
  • News
  • Weather Widgets
  • user-avatar
    Login

    Hourly Weather Dubiecko

    Today, 20 February, Wednesday

    Time Temperature Precipitation Wind Pressure Humidity
    00:00 +4°C° 0 mm 4 mps 741 mmHg 85%
    01:00 +3°C° 0 mm 4 mps 741 mmHg 86%
    02:00 +3°C° 0.5 mm 4 mps 741 mmHg 88%
    03:00 +4°C° 0.5 mm 4 mps 741 mmHg 89%
    04:00 +4°C° 0.5 mm 4 mps 741 mmHg 91%
    05:00 +3°C° 0 mm 4 mps 741 mmHg 91%
    06:00 +3°C° 0 mm 4 mps 741 mmHg 92%
    07:00 +2°C° 0 mm 5 mps 741 mmHg 92%
    08:00 +2°C° 0 mm 5 mps 742 mmHg 88%
    09:00 +2°C° 0 mm 5 mps 742 mmHg 84%
    10:00 +3°C° 0 mm 6 mps 742 mmHg 80%
    11:00 +3°C° 0.1 mm 6 mps 743 mmHg 79%
    12:00 +3°C° 0.1 mm 6 mps 743 mmHg 77%
    13:00 +3°C° 0.1 mm 6 mps 743 mmHg 75%
    14:00 +3°C° 0.1 mm 6 mps 743 mmHg 75%
    15:00 +3°C° 0.1 mm 6 mps 743 mmHg 75%
    16:00 +3°C° 0.1 mm 5 mps 743 mmHg 75%
    17:00 +3°C° 0 mm 5 mps 744 mmHg 76%
    18:00 +2°C° 0 mm 5 mps 744 mmHg 77%
    19:00 +3°C° 0 mm 4 mps 744 mmHg 78%
    20:00 +3°C° 0 mm 4 mps 745 mmHg 78%
    21:00 +3°C° 0 mm 4 mps 745 mmHg 78%
    22:00 +3°C° 0 mm 4 mps 745 mmHg 78%
    23:00 +3°C° 0 mm 4 mps 745 mmHg 79%

    Tomorrow, 21 February, Thursday

    Time Temperature Precipitation Wind Pressure Humidity
    00:00 +3°C° 0 mm 4 mps 746 mmHg 80%
    01:00 +3°C° 0 mm 4 mps 746 mmHg 82%
    02:00 +1°C° 0 mm 4 mps 746 mmHg 83%
    03:00 +1°C° 0 mm 4 mps 746 mmHg 85%
    04:00 +1°C° 0 mm 4 mps 746 mmHg 86%
    05:00 +1°C° 0 mm 4 mps 746 mmHg 86%
    06:00 +1°C° 0 mm 4 mps 746 mmHg 86%
    07:00 +1°C° 0 mm 4 mps 746 mmHg 85%
    08:00 +3°C° 0 mm 4 mps 746 mmHg 82%
    09:00 +3°C° 0 mm 5 mps 746 mmHg 78%
    10:00 +5°C° 0 mm 5 mps 746 mmHg 75%
    11:00 +6°C° 0 mm 5 mps 746 mmHg 71%
    12:00 +6°C° 0 mm 5 mps 745 mmHg 67%
    13:00 +7°C° 0 mm 6 mps 745 mmHg 63%
    14:00 +6°C° 0.5 mm 5 mps 745 mmHg 68%
    15:00 +6°C° 0.5 mm 5 mps 744 mmHg 72%
    16:00 +5°C° 0.5 mm 4 mps 744 mmHg 76%
    17:00 +5°C° 0.9 mm 5 mps 743 mmHg 78%
    18:00 +5°C° 0.9 mm 5 mps 743 mmHg 81%
    19:00 +5°C° 0.9 mm 5 mps 743 mmHg 83%
    20:00 +3°C° 0.5 mm 5 mps 743 mmHg 84%
    21:00 +3°C° 0.5 mm 6 mps 743 mmHg 85%
    22:00 +3°C° 0.5 mm 6 mps 743 mmHg 86%
    23:00 +3°C° 0.4 mm 6 mps 742 mmHg 87%

    Day after tomorrow, 22 February, Friday

    Time Temperature Precipitation Wind Pressure Humidity
    00:00 +3°C° 0.4 mm 6 mps 742 mmHg 88%
    01:00 +3°C° 0.4 mm 5 mps 742 mmHg 90%
    02:00 +5°C° 0.7 mm 5 mps 742 mmHg 91%
    03:00 +5°C° 0.7 mm 5 mps 741 mmHg 92%
    04:00 +5°C° 0.7 mm 5 mps 741 mmHg 93%
    05:00 +5°C° 1.1 mm 5 mps 742 mmHg 93%
    06:00 +3°C° 1.1 mm 5 mps 742 mmHg 93%
    07:00 +3°C° 1.1 mm 5 mps 743 mmHg 93%
    08:00 +1°C° 0.7 mm 6 mps 744 mmHg 90%
    09:00 -2°C° 0.7 mm 6 mps 745 mmHg 88%
    10:00 -4°C° 0.7 mm 6 mps 746 mmHg 85%
    11:00 -4°C° 0 mm 6 mps 747 mmHg 79%
    12:00 -4°C° 0 mm 6 mps 748 mmHg 72%
    13:00 -3°C° 0 mm 6 mps 749 mmHg 66%
    14:00 -4°C° 0 mm 6 mps 750 mmHg 66%
    15:00 -5°C° 0 mm 6 mps 750 mmHg 66%
    16:00 -5°C° 0 mm 6 mps 751 mmHg 65%
    17:00 -6°C° 0 mm 6 mps 752 mmHg 65%
    18:00 -7°C° 0 mm 5 mps 753 mmHg 65%
    19:00 -7°C° 0 mm 5 mps 753 mmHg 64%
    20:00 -7°C° 0 mm 5 mps 754 mmHg 62%
    21:00 -8°C° 0 mm 5 mps 755 mmHg 60%
    22:00 -8°C° 0 mm 5 mps 755 mmHg 58%
    23:00 -8°C° 0 mm 5 mps 756 mmHg 55%

    23 February, Saturday

    Time Temperature Precipitation Wind Pressure Humidity
    00:00 -8°C° 0 mm 4 mps 756 mmHg 53%
    01:00 -8°C° 0 mm 4 mps 756 mmHg 51%
    02:00 -8°C° 0 mm 4 mps 756 mmHg 50%
    03:00 -8°C° 0 mm 4 mps 757 mmHg 50%
    04:00 -8°C° 0 mm 4 mps 757 mmHg 49%
    05:00 -8°C° 0 mm 4 mps 757 mmHg 50%
    06:00 -8°C° 0 mm 4 mps 757 mmHg 51%
    07:00 -7°C° 0 mm 3 mps 757 mmHg 52%
    08:00 -7°C° 0 mm 4 mps 757 mmHg 48%
    09:00 -7°C° 0 mm 4 mps 758 mmHg 45%
    10:00 -5°C° 0 mm 4 mps 758 mmHg 42%
    11:00 -4°C° 0 mm 4 mps 758 mmHg 38%
    12:00 -3°C° 0 mm 4 mps 758 mmHg 35%
    13:00 -4°C° 0 mm 5 mps 757 mmHg 31%
    14:00 -3°C° 0 mm 4 mps 757 mmHg 32%
    15:00 -3°C° 0 mm 4 mps 757 mmHg 33%
    16:00 -3°C° 0 mm 4 mps 757 mmHg 34%
    17:00 -4°C° 0 mm 3 mps 757 mmHg 38%
    18:00 -4°C° 0 mm 3 mps 757 mmHg 42%
    19:00 -4°C° 0 mm 2 mps 757 mmHg 46%
    20:00 -4°C° 0 mm 2 mps 757 mmHg 46%
    21:00 -4°C° 0 mm 2 mps 757 mmHg 47%
    22:00 -2°C° 0 mm 1 mps 757 mmHg 47%
    23:00 -3°C° 0 mm 1 mps 757 mmHg 48%

    24 February, Sunday

    Time Temperature Precipitation Wind Pressure Humidity
    00:00 -3°C° 0 mm 1 mps 757 mmHg 48%
    01:00 -3°C° 0 mm 1 mps 757 mmHg 48%
    02:00 -3°C° 0 mm 1 mps 756 mmHg 48%
    03:00 -5°C° 0 mm 2 mps 756 mmHg 48%
    04:00 -5°C° 0 mm 2 mps 756 mmHg 48%
    05:00 -5°C° 0 mm 2 mps 755 mmHg 48%
    06:00 -5°C° 0 mm 2 mps 755 mmHg 47%
    07:00 -4°C° 0 mm 2 mps 755 mmHg 47%
    08:00 -3°C° 0 mm 2 mps 755 mmHg 43%
    09:00 -2°C° 0 mm 3 mps 754 mmHg 40%
    10:00 -1°C° 0 mm 3 mps 754 mmHg 36%
    11:00 -1°C° 0 mm 3 mps 754 mmHg 36%
    12:00 0°C° 0 mm 3 mps 753 mmHg 36%
    13:00 0°C° 0 mm 3 mps 753 mmHg 36%
    14:00 +1°C° 0 mm 2 mps 753 mmHg 39%
    15:00 +2°C° 0 mm 2 mps 752 mmHg 41%
    16:00 +3°C° 0 mm 1 mps 752 mmHg 44%
    17:00 +2°C° 0 mm 1 mps 752 mmHg 48%
    18:00 +2°C° 0 mm 1 mps 752 mmHg 52%
    19:00 +1°C° 0 mm 1 mps 752 mmHg 56%
    20:00 +1°C° 0 mm 1 mps 752 mmHg 61%
    21:00 +1°C° 0 mm 1 mps 753 mmHg 65%
    22:00 +1°C° 0 mm 1 mps 753 mmHg 70%
    23:00 +1°C° 0 mm 1 mps 753 mmHg 73%

    25 February, Monday

    Time Temperature Precipitation Wind Pressure Humidity
    00:00 0°C° 0 mm 1 mps 752 mmHg 76%
    01:00 0°C° 0 mm 1 mps 752 mmHg 80%
    02:00 0°C° 0 mm 1 mps 752 mmHg 82%
    03:00 0°C° 0 mm 1 mps 752 mmHg 84%
    04:00 0°C° 0 mm 1 mps 752 mmHg 86%
    05:00 0°C° 0 mm 1 mps 752 mmHg 86%
    06:00 0°C° 0 mm 1 mps 752 mmHg 87%
    07:00 0°C° 0 mm 1 mps 751 mmHg 87%
    08:00 +1°C° 0 mm 1 mps 752 mmHg 83%
    09:00 +1°C° 0 mm 2 mps 752 mmHg 79%
    10:00 +2°C° 0 mm 2 mps 752 mmHg 74%
    11:00 +3°C° 0 mm 2 mps 751 mmHg 72%
    12:00 +4°C° 0 mm 2 mps 751 mmHg 69%
    13:00 +4°C° 0 mm 3 mps 750 mmHg 67%
    14:00 +4°C° 0 mm 2 mps 750 mmHg 68%
    15:00 +4°C° 0 mm 2 mps 750 mmHg 70%
    16:00 +4°C° 0 mm 2 mps 750 mmHg 71%
    17:00 +3°C° 0 mm 2 mps 750 mmHg 77%
    18:00 +2°C° 0 mm 2 mps 750 mmHg 83%
    19:00 0°C° 0 mm 3 mps 750 mmHg 88%
    20:00 0°C° 0 mm 3 mps 750 mmHg 91%
    21:00 0°C° 0 mm 3 mps 750 mmHg 94%
    22:00 0°C° 0 mm 3 mps 750 mmHg 97%
    23:00 -1°C° 0 mm 2 mps 750 mmHg 97%
    Show more